Home   Weather   Vevay   Past weeks

Flag for USA Past Weather in Vevay, Indiana, USA — Yesterday and Last 2 Weeks

47 °F

Broken clouds.

Feels Like: 43 °F
Forecast: 43 / 71 °F
Wind: 8 mph from East

Location: Cincinnati / Northern Kentucky International Airport

Current Time: Oct 26, 2016 at 9:31:22 AM

Latest Report: Oct 26, 2016 at 8:52 AM

Visibility: 10 mi

Pressure: 30.29 "Hg

Humidity: 71%

Dew Point: 38 °F

Location of VevayLocation

Past Weather in Vevay — Graph


Vevay Temperature Yesterday

Maximum temperature yesterday: 59 °F (at 1:52 PM)
Minimum temperature yesterday: 42 °F (at 7:52 AM)
Average temperature yesterday: 50 °F

High & Low Weather Summary for the Past Weeks

High82 °F (Oct 17, 2:52 PM)100% (Oct 19, 9:52 PM)30.41 "Hg (Oct 19, 9:52 PM)
Low42 °F (Oct 25, 7:52 AM)37% (Oct 12, 2:52 PM)29.79 "Hg (Oct 18, 2:52 AM)
Average61 °F72%30.09 "Hg
* Reported Oct 11 7:52 AM — Oct 26 7:52 AM, Vevay, Weather by CustomWeather, © 2016

Note: Actual official high and low records may vary slightly from our data, if they occured in-between our weather recording intervals... More about our weather records


Vevay Weather History for the Previous 24 Hours

Scroll right to see more
Time TempWeatherWind HumidityBarometerVisibility
7:52 AM
Wed, Oct 26
47 °FPassing clouds.12 mph69%30.29 "Hg10 mi
6:52 AM47 °FOvercast.12 mph71%30.28 "Hg10 mi
5:52 AM46 °FPartly cloudy.10 mph73%30.29 "Hg10 mi
4:52 AM44 °FPassing clouds.6 mph79%30.30 "Hg10 mi
3:52 AM47 °FPassing clouds.9 mph71%30.33 "Hg10 mi
2:52 AM45 °FPassing clouds.6 mph74%30.33 "Hg10 mi
1:52 AM45 °FPassing clouds.8 mph76%30.33 "Hg10 mi
12:52 AM48 °FPassing clouds.8 mph68%30.34 "Hg10 mi
11:52 PM
Tue, Oct 25
47 °FPassing clouds.7 mph74%30.35 "Hg10 mi
10:52 PM50 °FPassing clouds.12 mph66%30.35 "Hg10 mi
9:52 PM50 °FPassing clouds.8 mph66%30.35 "Hg10 mi
8:52 PM52 °FPassing clouds.10 mph64%30.35 "Hg10 mi
7:52 PM55 °FPassing clouds.10 mph57%30.35 "Hg10 mi
6:52 PM54 °FPassing clouds.6 mph59%30.33 "Hg10 mi
5:52 PM57 °FBroken clouds.7 mph51%30.33 "Hg10 mi
4:52 PM58 °FPartly sunny.9 mph51%30.34 "Hg10 mi
3:52 PM59 °FPartly sunny.6 mph46%30.34 "Hg10 mi
2:52 PM59 °FPartly sunny.6 mph51%30.35 "Hg10 mi
1:52 PM59 °FPartly sunny.3 mph54%30.37 "Hg10 mi
12:52 PM56 °FPartly sunny.5 mph60%30.40 "Hg10 mi
10:52 AM50 °FBroken clouds.5 mph74%30.41 "Hg10 mi
9:52 AM47 °FPartly sunny.5 mph80%30.41 "Hg10 mi
Weather by CustomWeather, © 2016

See weather overviewHow to use our weather pages